Falfurrias, TX

8:39 PM CST on February 26, 2017 (GMT -0600)
Falfurrias

Weather History for KBKS - January, 2014

Change the Weather History Date:

Wednesday, January 22, 2014

  Actual Average (KNQI) Record (KNQI)
Temperature  
Mean Temperature 54 °F -  
Max Temperature 75 °F 68 °F 84 °F (2012)
Min Temperature 34 °F 47 °F 30 °F (2011)
Degree Days  
Heating Degree Days 10    
Growing Degree Days 4 (Base 50)    
Moisture  
Dew Point 35 °F    
Average Humidity 52    
Maximum Humidity 91    
Minimum Humidity 20    
Precipitation  
Precipitation 0.00 in - - ()
Sea Level Pressure  
Sea Level Pressure 30.12 in    
Wind  
Wind Speed 5 mph (SSE)    
Max Wind Speed 15 mph    
Max Gust Speed 22 mph    
Visibility 10 miles    
Events      
Averages and records for this station are not official NWS values.
T = Trace of Precipitation, MM = Missing Value Source: NWS Daily Summary

Daily Weather History Graph

Daily Weather History Graph

Search for Another Location

Airport or City:

Trip Planner

Search our weather history database for the weather conditions in past years. The results will help you decide how hot, cold, wet, or windy it might be!

Date:

Astronomy

Jan. 22, 2014 Rise Set
Actual Time 7:22 AM CST 6:06 PM CST
Civil Twilight 6:57 AM CST 6:31 PM CST
Nautical Twilight 6:29 AM CST 6:59 PM CST
Astronomical Twilight 6:01 AM CST 7:27 PM CST
Moon No Moon Rise 11:00 AM CST (1/22)
Length of Visible Light 11h 33m
Length of Day
10h 43m
Waning Gibbous, 65% of the Moon is Illuminated
Jan 22
Waning Gibbous
Jan 23
Last Quarter
Jan 30
New
Feb 6
First Quarter
Feb 14
Full

Hourly Weather History & Observations

Time (CST) Temp. Windchill Dew Point Humidity Pressure Visibility Wind Dir Wind Speed Gust Speed Precip Events Conditions
12:15 AM 43.2 °F 41.5 °F 29.7 °F 59% 30.25 in 10.0 mi ESE 3.5 mph - N/A   Clear
12:35 AM 41.9 °F - 29.3 °F 61% 30.25 in 10.0 mi Calm Calm - N/A   Clear
12:55 AM 42.3 °F 38.6 °F 27.3 °F 56% 30.25 in 10.0 mi WSW 5.8 mph - N/A   Clear
1:15 AM 42.3 °F 39.4 °F 28.0 °F 57% 30.25 in 10.0 mi West 4.6 mph - N/A   Clear
1:35 AM 42.1 °F - 27.3 °F 56% 30.24 in 10.0 mi Calm Calm - N/A   Clear
1:55 AM 39.7 °F 37.6 °F 28.4 °F 64% 30.24 in 10.0 mi WSW 3.5 mph - N/A   Clear
2:15 AM 40.5 °F - 27.9 °F 61% 30.24 in 10.0 mi Calm Calm - N/A   Clear
2:35 AM 40.6 °F - 27.5 °F 59% 30.23 in 10.0 mi Calm Calm - N/A   Clear
2:55 AM 40.1 °F - 28.4 °F 63% 30.22 in 10.0 mi Calm Calm - N/A   Clear
3:15 AM 39.2 °F - 28.0 °F 64% 30.22 in 10.0 mi Calm Calm - N/A   Clear
3:35 AM 38.7 °F - 28.4 °F 67% 30.22 in 10.0 mi Calm Calm - N/A   Clear
3:55 AM 37.0 °F - 29.5 °F 74% 30.22 in 10.0 mi Calm Calm - N/A   Clear
4:15 AM 36.5 °F 32.7 °F 29.3 °F 75% 30.21 in 10.0 mi WSW 4.6 mph - N/A   Clear
4:35 AM 36.5 °F 33.9 °F 27.3 °F 69% 30.22 in 10.0 mi SW 3.5 mph - N/A   Clear
4:55 AM 37.4 °F - 27.1 °F 66% 30.21 in 10.0 mi Calm Calm - N/A   Clear
5:15 AM 37.0 °F - 27.5 °F 68% 30.21 in 10.0 mi Calm Calm - N/A   Clear
5:35 AM 36.7 °F - 26.4 °F 66% 30.20 in 10.0 mi Calm Calm - N/A   Clear
5:55 AM 35.8 °F - 26.4 °F 69% 30.21 in 10.0 mi Calm Calm - N/A   Clear
6:15 AM 35.2 °F - 26.6 °F 71% 30.21 in 10.0 mi Calm Calm - N/A   Clear
6:35 AM 35.8 °F - 27.1 °F 71% 30.20 in 10.0 mi Calm Calm - N/A   Clear
6:55 AM 36.0 °F - 26.6 °F 69% 30.20 in 10.0 mi Calm Calm - N/A   Clear
7:15 AM 34.9 °F 32.0 °F 27.1 °F 73% 30.21 in 10.0 mi WSW 3.5 mph - N/A   Clear
7:35 AM 34.0 °F - 27.0 °F 75% 30.21 in 10.0 mi Calm Calm - N/A   Clear
7:55 AM 35.2 °F 31.2 °F 27.5 °F 73% 30.21 in 10.0 mi WSW 4.6 mph - N/A   Clear
8:15 AM 37.0 °F - 28.6 °F 71% 30.21 in 10.0 mi Calm Calm - N/A   Clear
8:35 AM 41.0 °F - 30.4 °F 66% 30.21 in 10.0 mi Calm Calm - N/A   Clear
8:55 AM 46.6 °F - 32.7 °F 59% 30.21 in 10.0 mi SSW 4.6 mph - N/A   Clear
9:15 AM 51.4 °F - 34.7 °F 53% 30.22 in 10.0 mi SW 5.8 mph - N/A   Clear
9:35 AM 56.5 °F - 34.7 °F 44% 30.22 in 10.0 mi SSW 6.9 mph - N/A   Clear
9:55 AM 60.4 °F - 33.3 °F 36% 30.22 in 10.0 mi SSW 9.2 mph - N/A   Clear
10:15 AM 63.1 °F - 33.3 °F 33% 30.22 in 10.0 mi South 9.2 mph - N/A   Clear
10:35 AM 65.3 °F - 32.0 °F 29% 30.22 in 10.0 mi SSE 12.7 mph 16.1 mph N/A   Clear
10:55 AM 67.6 °F - 29.3 °F 24% 30.21 in 10.0 mi SSE 12.7 mph - N/A   Clear
11:15 AM 68.0 °F - 28.4 °F 23% 30.21 in 10.0 mi SSE 12.7 mph - N/A   Clear
11:35 AM 68.9 °F - 27.3 °F 21% 30.20 in 10.0 mi SSE 12.7 mph 16.1 mph N/A   Clear
11:55 AM 69.8 °F - 28.6 °F 22% 30.19 in 10.0 mi South 11.5 mph 18.4 mph N/A   Clear
12:15 PM 70.5 °F - 29.3 °F 22% 30.16 in 10.0 mi SSE 10.4 mph 16.1 mph N/A   Clear
12:35 PM 70.9 °F - 29.5 °F 22% 30.15 in 10.0 mi SSE 9.2 mph - N/A   Clear
12:55 PM 72.0 °F - 31.5 °F 22% 30.13 in 10.0 mi South 9.2 mph 17.3 mph N/A   Clear
1:15 PM 72.5 °F - 32.0 °F 23% 30.10 in 10.0 mi SSE 9.2 mph - N/A   Clear
1:35 PM 72.9 °F - 32.5 °F 23% 30.09 in 10.0 mi SE 9.2 mph 17.3 mph N/A   Clear
1:55 PM 73.6 °F - 32.9 °F 23% 30.07 in 10.0 mi South 10.4 mph 19.6 mph N/A   Clear
2:15 PM 74.3 °F - 30.9 °F 20% 30.05 in 10.0 mi SSE 12.7 mph - N/A   Clear
2:35 PM 74.5 °F - 31.5 °F 21% 30.04 in 10.0 mi SE 11.5 mph 19.6 mph N/A   Clear
2:55 PM 75.6 °F - 32.0 °F 20% 30.03 in 10.0 mi SSE 13.8 mph 20.7 mph N/A   Clear
3:15 PM 75.4 °F - 33.8 °F 22% 30.01 in 10.0 mi SSE 12.7 mph 21.9 mph N/A   Clear
3:35 PM 75.2 °F - 32.4 °F 21% 30.01 in 10.0 mi SSE 15.0 mph 21.9 mph N/A   Clear
3:55 PM 75.4 °F - 33.4 °F 22% 30.00 in 10.0 mi SSE 15.0 mph - N/A   Clear
4:15 PM 75.2 °F - 33.4 °F 22% 30.00 in 10.0 mi SSE 12.7 mph 20.7 mph N/A   Clear
4:35 PM 75.2 °F - 36.3 °F 24% 30.00 in 10.0 mi SSE 12.7 mph - N/A   Clear
4:55 PM 75.6 °F - 35.4 °F 23% 30.00 in 10.0 mi SE 11.5 mph 18.4 mph N/A   Clear
5:15 PM 74.5 °F - 36.7 °F 25% 29.99 in 10.0 mi SSE 15.0 mph - N/A   Clear
5:35 PM 73.2 °F - 35.8 °F 26% 29.99 in 10.0 mi SSE 10.4 mph - N/A   Clear
5:55 PM 71.8 °F - 35.6 °F 27% 29.99 in 10.0 mi SSE 10.4 mph - N/A   Clear
6:15 PM 70.0 °F - 37.8 °F 31% 29.99 in 10.0 mi SSE 6.9 mph - N/A   Clear
6:35 PM 67.3 °F - 38.7 °F 35% 29.99 in 10.0 mi SSE 6.9 mph - N/A   Clear
6:55 PM 65.5 °F - 39.6 °F 39% 29.99 in 10.0 mi ESE 5.8 mph - N/A   Clear
7:15 PM 65.3 °F - 47.7 °F 53% 30.00 in 10.0 mi SE 6.9 mph - N/A   Clear
7:35 PM 64.2 °F - 50.9 °F 62% 30.00 in 10.0 mi ESE 6.9 mph - N/A   Clear
7:55 PM 63.5 °F - 51.8 °F 66% 30.01 in 10.0 mi ESE 5.8 mph - N/A   Clear
8:15 PM 63.5 °F - 52.5 °F 67% 30.00 in 10.0 mi SE 8.1 mph - N/A   Clear
8:35 PM 62.6 °F - 52.7 °F 70% 30.01 in 10.0 mi SE 8.1 mph - N/A   Clear
8:55 PM 62.1 °F - 53.1 °F 72% 30.02 in 10.0 mi SE 6.9 mph - N/A   Clear
9:15 PM 61.2 °F - 53.2 °F 75% 30.01 in 10.0 mi SE 4.6 mph - N/A   Clear
9:35 PM 60.1 °F - 53.2 °F 78% 30.01 in 10.0 mi ESE 3.5 mph - N/A   Clear
9:55 PM 59.0 °F - 53.1 °F 81% 30.02 in 10.0 mi ESE 3.5 mph - N/A   Clear
10:15 PM 57.7 °F - 53.1 °F 84% 30.02 in 10.0 mi ESE 4.6 mph - N/A   Clear
10:35 PM 57.6 °F - 53.2 °F 85% 30.02 in 10.0 mi East 4.6 mph - N/A   Clear
10:55 PM 57.7 °F - 53.4 °F 85% 30.02 in 10.0 mi ESE 4.6 mph - N/A   Clear
11:15 PM 56.8 °F - 53.2 °F 88% 30.02 in 10.0 mi East 3.5 mph - N/A   Clear
11:35 PM 56.7 °F - 53.6 °F 89% 30.01 in 10.0 mi ESE 3.5 mph - N/A   Clear
11:55 PM 56.1 °F - 53.4 °F 91% 30.01 in 10.0 mi ESE 3.5 mph - N/A   Clear